Weather reports worldwide

Advertisment
Goudhurst, United Kingdom (99126): temperature & dewpoint: 17.09.2017 06:00:00 - 23.09.2017 06:00:00 (BST)Goudhurst, United Kingdom (99126): precipitation: 17.09.2017 06:00:00 - 23.09.2017 06:00:00 (BST)
Date & Time tt [°C] td [°C] rr [mm]
23.09.2017 06:00:00 - - 0,0
23.09.2017 05:00:00 9,6 9,2 0,0
23.09.2017 04:00:00 9,7 9,1 0,0
23.09.2017 03:00:00 10,6 9,9 0,2
23.09.2017 02:00:00 11,5 10,3 0,0
23.09.2017 01:00:00 10,1 9,6 0,0
23.09.2017 00:00:00 9,7 9,1 0,0
22.09.2017 23:00:00 10,6 9,4 0,0
22.09.2017 22:00:00 9,9 9,0 0,0
22.09.2017 21:00:00 10,6 9,4 0,0
22.09.2017 20:00:00 11,2 9,5 0,0
22.09.2017 19:00:00 12,6 9,2 0,0
22.09.2017 18:00:00 15,0 9,3 0,0
22.09.2017 17:00:00 16,4 9,1 0,0
22.09.2017 16:00:00 17,2 7,9 0,0
22.09.2017 15:00:00 17,2 6,3 0,0
22.09.2017 14:00:00 16,6 4,5 0,0
22.09.2017 13:00:00 16,2 7,1 0,0
22.09.2017 12:00:00 15,0 7,8 0,0
22.09.2017 11:00:00 14,9 9,8 0,0
22.09.2017 10:00:00 12,4 10,0 0,0
22.09.2017 09:00:00 9,9 9,8 0,0
22.09.2017 08:00:00 7,5 7,4 0,0
22.09.2017 07:00:00 6,1 5,8 0,0
22.09.2017 06:00:00 7,3 7,1 0,0
22.09.2017 05:00:00 7,4 7,1 0,0
22.09.2017 04:00:00 8,2 8,0 0,0
22.09.2017 03:00:00 9,0 8,7 0,0
22.09.2017 02:00:00 9,5 9,1 0,0
22.09.2017 01:00:00 10,1 9,3 0,2
22.09.2017 00:00:00 11,8 10,6 0,0
21.09.2017 23:00:00 12,6 11,2 0,0
21.09.2017 22:00:00 13,3 12,5 0,0
21.09.2017 21:00:00 13,9 13,4 0,0
21.09.2017 20:00:00 13,9 13,3 0,0
21.09.2017 19:00:00 14,1 13,5 0,2
21.09.2017 18:00:00 14,1 13,2 0,2
21.09.2017 17:00:00 15,5 11,5 0,0
21.09.2017 16:00:00 16,8 12,0 0,0
21.09.2017 15:00:00 17,4 11,2 0,0
21.09.2017 14:00:00 17,2 11,7 0,0
21.09.2017 13:00:00 17,4 10,9 0,0
21.09.2017 12:00:00 16,7 11,4 0,0
21.09.2017 11:00:00 17,2 12,8 0,0
21.09.2017 10:00:00 16,1 11,7 0,0
21.09.2017 09:00:00 15,2 12,3 0,0
21.09.2017 08:00:00 12,7 11,9 0,0
21.09.2017 07:00:00 11,0 10,6 0,0
21.09.2017 06:00:00 11,2 10,7 0,0
21.09.2017 05:00:00 11,4 10,3 0,0
21.09.2017 04:00:00 12,7 10,9 0,0
21.09.2017 03:00:00 12,7 10,7 0,0
21.09.2017 02:00:00 11,8 10,5 0,0
21.09.2017 01:00:00 10,7 10,3 0,0
21.09.2017 00:00:00 10,5 9,9 0,2
20.09.2017 23:00:00 10,7 10,2 0,0
20.09.2017 22:00:00 10,4 9,7 0,0
20.09.2017 21:00:00 11,4 10,4 0,0
20.09.2017 20:00:00 12,3 10,6 0,0
20.09.2017 19:00:00 13,8 11,3 0,0
20.09.2017 18:00:00 15,4 11,0 0,0
20.09.2017 17:00:00 16,0 13,3 0,0
20.09.2017 16:00:00 14,6 13,5 0,0
20.09.2017 15:00:00 13,3 12,6 0,4
20.09.2017 14:00:00 13,6 12,9 0,0
20.09.2017 13:00:00 13,8 12,1 0,0
20.09.2017 12:00:00 15,0 12,2 0,0
20.09.2017 11:00:00 14,9 12,8 0,0
20.09.2017 10:00:00 14,0 12,2 0,0
20.09.2017 09:00:00 13,0 12,3 0,0
20.09.2017 08:00:00 11,7 11,5 0,0
20.09.2017 07:00:00 11,2 11,0 0,0
20.09.2017 06:00:00 10,7 10,6 0,0
20.09.2017 05:00:00 9,6 9,5 0,2
20.09.2017 04:00:00 8,6 8,4 0,0
20.09.2017 03:00:00 8,4 8,3 0,0
20.09.2017 02:00:00 8,5 8,1 0,0
20.09.2017 01:00:00 9,3 9,0 0,0
20.09.2017 00:00:00 8,2 8,0 0,0
19.09.2017 23:00:00 8,5 8,3 0,0
19.09.2017 22:00:00 8,0 7,5 0,0
19.09.2017 21:00:00 7,8 7,4 0,0
19.09.2017 20:00:00 8,3 7,4 0,0
19.09.2017 19:00:00 10,6 8,2 0,0
19.09.2017 18:00:00 14,3 7,7 0,0
19.09.2017 17:00:00 15,2 8,0 0,0
19.09.2017 16:00:00 15,4 7,5 0,0
19.09.2017 15:00:00 14,2 7,7 0,0
19.09.2017 14:00:00 15,3 9,0 0,0
19.09.2017 13:00:00 13,8 9,1 0,0
19.09.2017 12:00:00 13,3 9,1 0,0
19.09.2017 11:00:00 12,0 8,7 0,0
19.09.2017 10:00:00 10,1 8,1 0,0
19.09.2017 09:00:00 9,8 9,3 0,0
19.09.2017 08:00:00 8,3 8,1 0,0
19.09.2017 07:00:00 8,3 8,1 0,0
19.09.2017 06:00:00 8,6 8,5 0,0
19.09.2017 05:00:00 7,8 7,4 0,0
19.09.2017 04:00:00 8,6 8,2 0,0
19.09.2017 03:00:00 8,9 8,5 0,2
19.09.2017 02:00:00 9,4 9,0 1,6
19.09.2017 01:00:00 10,0 9,6 1,4
19.09.2017 00:00:00 9,9 9,5 0,0
18.09.2017 23:00:00 9,2 9,0 0,0
18.09.2017 22:00:00 9,1 8,8 0,0
18.09.2017 21:00:00 8,9 8,4 0,0
18.09.2017 20:00:00 9,6 8,9 0,0
18.09.2017 19:00:00 11,3 9,3 0,0
18.09.2017 18:00:00 13,0 10,1 0,0
18.09.2017 17:00:00 12,7 10,6 0,2
18.09.2017 16:00:00 12,8 10,3 2,4
18.09.2017 15:00:00 16,4 8,7 0,0
18.09.2017 14:00:00 14,7 9,9 0,0
18.09.2017 13:00:00 14,6 9,0 0,0
18.09.2017 12:00:00 14,7 9,9 0,0
18.09.2017 11:00:00 13,5 9,8 0,0
18.09.2017 10:00:00 12,7 11,0 0,0
18.09.2017 09:00:00 11,2 10,5 0,0
18.09.2017 08:00:00 10,4 10,0 0,0
18.09.2017 07:00:00 10,1 9,6 0,0
18.09.2017 06:00:00 9,9 9,7 0,0
18.09.2017 05:00:00 9,4 9,2 0,0
18.09.2017 04:00:00 8,7 8,6 0,2
18.09.2017 03:00:00 8,2 7,9 0,0
18.09.2017 02:00:00 8,0 7,8 0,0
18.09.2017 01:00:00 8,4 8,1 0,0
18.09.2017 00:00:00 8,7 8,5 0,0
17.09.2017 23:00:00 8,1 7,8 0,0
17.09.2017 22:00:00 8,7 8,3 0,0
17.09.2017 21:00:00 9,3 8,7 0,0
17.09.2017 20:00:00 10,3 9,4 0,0
17.09.2017 19:00:00 12,3 9,9 0,0
17.09.2017 18:00:00 14,3 10,3 0,0
17.09.2017 17:00:00 13,9 9,2 0,0
17.09.2017 16:00:00 14,4 9,4 0,0
17.09.2017 15:00:00 15,6 10,2 0,0
17.09.2017 14:00:00 13,6 8,8 0,0
17.09.2017 13:00:00 14,2 10,4 0,0
17.09.2017 12:00:00 11,4 9,7 0,0
17.09.2017 11:00:00 9,8 9,7 0,0
17.09.2017 10:00:00 8,7 8,6 0,0
17.09.2017 09:00:00 8,2 8,2 0,0
17.09.2017 08:00:00 7,4 7,3 0,0
17.09.2017 07:00:00 5,0 4,9 0,0
17.09.2017 06:00:00 4,3 4,1 0,0

tt = temperature
td = dewpoint
rr = precipitation

Next stations